Regional Weather Roundup
Issued by NWS

Home | Current Version | Previous Version | Graphics & Text | Print | Product List | Glossary Off
Versions: 1 2 3 4 5 6 7 8 9 10 11 12 13 14 15 16 17 18 19 20 21 22 23 24 25 26 27 28 29 30 31 32 33 34 35 36 37 38 39 40 41 42 43 44 45 46 47 48 49 50

000
ASUS43 KDTX 251210
RWRMI
MICHIGAN HOURLY REGIONAL WEATHER ROUNDUP
NATIONAL WEATHER SERVICE DETROIT/PONTIAC MI
800 AM EDT THU MAY 25 2017

NOTE: "FAIR" INDICATES FEW OR NO CLOUDS BELOW 12,000 FEET WITH NO
SIGNIFICANT WEATHER AND/OR OBSTRUCTION TO VISIBILITY.

MIZ047>049-052>055-059>063-066>070-074>076-081>083-251300-
SOUTHEAST LOWER MICHIGAN

CITY           SKY/WX    TMP DP  RH WIND       PRES   REMARKS
ADRIAN         CLOUDY    58  58 100 NE8       29.46R
6HR MIN TEMP:  57; 6HR MAX TEMP:  58; 6HR PCP:  0.07;

ALMA           RAIN      55  54  99 N9        29.55R
ANN ARBOR      CLOUDY    58  58 100 N8        29.46S
BAD AXE        DRIZZLE   53  53  99 NE6       29.55R
6HR MIN TEMP:  52; 6HR MAX TEMP:  56;

CARO           CLOUDY    56  55  97 NE3       29.52S FOG
DETROIT CITY   CLOUDY    57  57 100 NE7       29.47S FOG
6HR MIN TEMP:  57; 6HR MAX TEMP:  58; 6HR PCP:  0.09;

DETROIT        CLOUDY    58  58 100 NE7       29.46S FOG
6HR MIN TEMP:  58; 6HR MAX TEMP:  59; 6HR PCP:  0.08;

FLINT          CLOUDY    56  55  97 NE9       29.51R FOG
6HR MIN TEMP:  56; 6HR MAX TEMP:  56; 6HR PCP:  0.03;

GROSSE ILE     CLOUDY    58  56  94 NE7       29.44S
6HR MIN TEMP:  57; 6HR MAX TEMP:  58;

HILLSDALE      CLOUDY    57  55  94 N7        29.46R FOG
HOWELL         CLOUDY    56  55  93 N5        29.49S FOG
6HR MIN TEMP:  56; 6HR MAX TEMP:  58; 6HR PCP:  0.04;


CITY           SKY/WX    TMP DP  RH WIND       PRES   REMARKS
JACKSON        LGT RAIN  57  56  96 N9        29.48R FOG
6HR MIN TEMP:  57; 6HR MAX TEMP:  59; 6HR PCP:  0.18;

LAMBERTVILLE   CLOUDY    58  56  96 E3        29.44R
6HR MIN TEMP:  58; 6HR MAX TEMP:  58;

LANSING        CLOUDY    58  54  86 NE8       29.52R FOG
6HR MIN TEMP:  58; 6HR MAX TEMP:  58;

LAPEER         DRIZZLE   56  55  98 NE6       29.51S
6HR MIN TEMP:  55; 6HR MAX TEMP:  56; 6HR PCP:  0.03;

MASON          CLOUDY    56  56  99 N10       29.50R FOG
MONROE         CLOUDY    58  57  96 NE5       29.45R FOG
6HR MIN TEMP:  58; 6HR MAX TEMP:  60;

MT. CLEMENS    DRIZZLE   57  57 100 NE8       29.46F FOG
6HR MIN TEMP:  58; 6HR MAX TEMP:  58; 6HR PCP: TRACE;

PONTIAC        LGT RAIN  58  56  93 NE7       29.47S FOG
6HR MIN TEMP:  57; 6HR MAX TEMP:  58; 6HR PCP:  0.01;

PORT HOPE        N/A     51  50  96 NE16      29.54R
6HR MIN TEMP:  50; 6HR MAX TEMP:  54; 6HR PCP:  0.02;

PORT HURON     DRIZZLE   57  55  94 NE5       29.49S
TRI CITIES     LGT RAIN  54  53  97 N13       29.55S FOG
6HR MIN TEMP:  54; 6HR MAX TEMP:  56; 6HR PCP:  0.12;

MIDLAND        CLOUDY    55  52  92 NE5       29.55R
6HR MIN TEMP:  54; 6HR MAX TEMP:  55; 6HR PCP:  0.06;

TROY           RAIN      58  56  94 NE6       29.49S
SAGINAW HB     CLOUDY    55  52  88 N13       29.53S
$$
MIZ043>046-050>051-056>058-064>065-071>073-077>080-251300-
SOUTHWEST LOWER MICHIGAN

CITY           SKY/WX    TMP DP  RH WIND       PRES   REMARKS
BATTLE CREEK   CLOUDY    57  56  96 NE10      29.50R FOG
6HR MIN TEMP:  56; 6HR MAX TEMP:  57; 6HR PCP: TRACE;

BENTON HARBOR  CLOUDY    55  52  89 VRB6      29.52R
6HR MIN TEMP:  55; 6HR MAX TEMP:  58; 6HR PCP:  0.01;

BIG RAPIDS     RAIN      54  51  90 NE5       29.57R
6HR MIN TEMP:  54; 6HR MAX TEMP:  55; 6HR PCP:  0.02;

COLDWATER      RAIN      57  57 100 N7        29.47S
6HR MIN TEMP:  57; 6HR MAX TEMP:  59;

FREMONT        DRIZZLE   56  53  92 NE6       29.56R
HOLLAND        CLOUDY    58  54  86 NE6       29.54R
6HR MIN TEMP:  58; 6HR MAX TEMP:  59; 6HR PCP: TRACE;

GRAND RAPIDS   CLOUDY    56  56 100 N10       29.53R FOG
6HR MIN TEMP:  56; 6HR MAX TEMP:  56; 6HR PCP:  0.07;

IONIA          CLOUDY    55  55  97 N12G17    29.52R FOG
6HR MIN TEMP:  55; 6HR MAX TEMP:  55;

KALAMAZOO      CLOUDY    57  54  89 N8        29.50R FOG
6HR MIN TEMP:  57; 6HR MAX TEMP:  58;

LUDINGTON      CLOUDY    54  52  94 N8        29.58F
6HR MIN TEMP:  51; 6HR MAX TEMP:  54;

MARSHALL       FOG       56  56  97 N6        29.49R VSB 1
6HR MIN TEMP:  56; 6HR MAX TEMP:  58; 6HR PCP:  0.03;

MOUNT PLEASANT CLOUDY    55  53  95 NE9       29.56R
6HR MIN TEMP:  54; 6HR MAX TEMP:  55; 6HR PCP:  0.10;

MUSKEGON       CLOUDY    58  54  86 N9        29.56R
6HR MIN TEMP:  57; 6HR MAX TEMP:  59; 6HR PCP:  0.01;

SOUTH HAVEN    CLOUDY    57  57 100 N5        29.52S
$$
MIZ016>042-251300-
NORTHERN LOWER MICHIGAN

CITY           SKY/WX    TMP DP  RH WIND       PRES   REMARKS
ALPENA         CLOUDY    54  54 100 NE12      29.62S
6HR MIN TEMP:  51; 6HR MAX TEMP:  57; 6HR PCP:  0.05;

BEAVER ISLAND  LGT RAIN  54  51  92 NE6       29.68R
6HR MIN TEMP:  53; 6HR MAX TEMP:  55;

BELLAIRE       LGT RAIN  53  50  90 N3        29.64R
6HR MIN TEMP:  53; 6HR MAX TEMP:  57;

CADILLAC       RAIN      53  52  97 N8        29.60R
CHARLEVOIX     LGT RAIN  55  52  88 E9        29.68R
6HR MIN TEMP:  50; 6HR MAX TEMP:  57;

FRANKFORT      CLOUDY    51  47  86 N6        29.63R
GAYLORD        LGT RAIN  53  49  86 NE7       29.64R FOG
6HR MIN TEMP:  52; 6HR MAX TEMP:  54; 6HR PCP:  0.06;

GRAYLING       CLOUDY    53  52  97 NE9         N/A
HARBOR SPRINGS LGT RAIN  55  52  90 NE9G16    29.66R
HOUGHTON LAKE  LGT RAIN  53  51  93 NE12      29.60S
6HR MIN TEMP:  53; 6HR MAX TEMP:  55; 6HR PCP:  0.12;

MANISTEE       CLOUDY    56  51  84 NE7       29.60S
OSCODA         CLOUDY    52  51  95 NE16G22   29.58R
6HR MIN TEMP:  50; 6HR MAX TEMP:  54; 6HR PCP:  0.01;

PELLSTON       CLOUDY    56  50  80 NE7       29.67R
6HR MIN TEMP:  54; 6HR MAX TEMP:  57; 6HR PCP: TRACE;

ROGERS CITY    LGT RAIN  48  47  97 N5        29.66S
TRAVERSE CITY  LGT RAIN  53  50  89 CALM      29.62R
6HR MIN TEMP:  49; 6HR MAX TEMP:  53; 6HR PCP: TRACE;

$$
MIZ007>008-015-251300-
EASTERN UPPER MICHIGAN

CITY           SKY/WX    TMP DP  RH WIND       PRES   REMARKS
KINROSS        CLOUDY    55  52  89 NE10      29.69S
6HR MIN TEMP:  53; 6HR MAX TEMP:  55; 6HR PCP: TRACE;

MACKINAC ISLAN CLOUDY    54  54 100 NE10      29.68R
6HR MIN TEMP:  52; 6HR MAX TEMP:  54; 6HR PCP:  0.03;

NEWBERRY       CLOUDY    48  47  97 N5        29.70S
6HR MIN TEMP:  48; 6HR MAX TEMP:  50;

S. S. MARIE    CLOUDY    56  51  84 NE5       29.69S
6HR MIN TEMP:  54; 6HR MAX TEMP:  57; 6HR PCP:  0.05;

MUNISING         N/A     43  40  89 N8        29.73R
6HR MIN TEMP:  43; 6HR MAX TEMP:  44;

$$
MIZ004>006-011>014-085-251300-
CENTRAL UPPER MICHIGAN

CITY           SKY/WX    TMP DP  RH WIND       PRES   REMARKS
MANISTIQUE     CLOUDY    50  47  90 N8        29.69R
6HR MIN TEMP:  49; 6HR MAX TEMP:  51;

ESCANABA       MOSUNNY   50  45  83 N7        29.70R
6HR MIN TEMP:  48; 6HR MAX TEMP:  50;

MENOMINEE      MOSUNNY   52  47  83 N7        29.68S
6HR MIN TEMP:  49; 6HR MAX TEMP:  52;

SAWYER-GWINN   PTSUNNY   45  41  87 N7        29.73S
$$
MIZ001>003-009>011-084-251300-
WESTERN UPPER MICHIGAN

CITY           SKY/WX    TMP DP  RH WIND       PRES   REMARKS
IRON MOUNTAIN  MOSUNNY   49  44  83 NW7       29.71S
6HR MIN TEMP:  44; 6HR MAX TEMP:  49;

HOUGHTON       CLOUDY    53  40  61 E6        29.75S
6HR MIN TEMP:  37; 6HR MAX TEMP:  53;

COPPER HARBOR    N/A     44  39  82 CALM      29.76S
6HR MIN TEMP:  39; 6HR MAX TEMP:  45;

IRONWOOD       SUNNY     48  44  86 E8        29.76S
6HR MIN TEMP:  38; 6HR MAX TEMP:  48;

$$

ABBREVIATIONS USED IN REMARKS
   TC - TEMPERATURE IN CELSIUS
  WCI - WIND CHILL INDEX
   HX - HEAT INDEX
  VSB - VISIBILITY





USA.gov is the U.S. government's official web portal to all federal, state and local government web resources and services.